Weather in Cherkutino

Russia / Vladimir Oblast     56°11′19″N   39°45′55″E
temp.,
°C
wind,
m/s
gust,
m/s
humid.,
%
clouds,
%
prec.,
mm/h
press.,
hPa
HPBL,
m
7 march, sun
sun700:00−14sw34930 0.0 101238
03:00−14ssw48953 0.0 1009146
06:00−10ssw7149099 0.0 1004499
09:00−8ssw81594100 0.9 999822
12:00−5sw81492100 1.1 9951073
15:00−3sw71294100 2.3 993944
18:00−5nnw3687100 1.2 992144
21:00−8nw1283100 1.4 99221
8 march, mon
mon800:00−9wsw3793100 0.0 993130
03:00−8w3687100 0.2 995161
06:00−11sw489586 0.0 994250
09:00−8sw479493 0.3 995556
12:00−6wnw4586100 0.6 997732
15:00−6nnw6885100 1.1 1000870
18:00−10nnw499143 0.0 1003179
21:00−12nw5109353 0.0 1006224
9 march, tue
tue900:00−15nw479759 0.0 1008135
03:00−16nnw479769 0.1 1010136
06:00−18nnw489892 0.0 1012149
09:00−19nnw489693 0.1 1014280
12:00−16nnw469193 0.0 1015419
15:00−14nnw468896 0.0 1017598
18:00−17nnw3695100 0.1 1018150
21:00−22nnw489897 0.1 1021157
10 march, wed
wed1000:00−25nnw469942 0.0 1022103
03:00−26nnw349945 0.0 102374
06:00−27nnw34980 0.0 102568
09:00−24n35950 0.0 1026191
12:00−19nnw34850 0.0 1027339
15:00−16nnw34830 0.0 1027433
18:00−19wnw22920 0.0 102720
21:00−20wnw33930 0.0 102825
11 march, thu
thu1100:00−21wnw33890 0.0 102822
03:00−22wnw23860 0.0 102920
06:00−22w238342 0.0 102820
09:00−18sw238544 0.0 102891
12:00−12ssw35783 0.0 1027298
15:00−9s47762 0.0 1026593
18:00−11s489442 0.0 1024234
21:00−14s5119771 0.1 1023266